Regional Weather Roundup
Issued by NWS Newport/Morehead, NC

Current Version | Previous Version | Text Only | Print | Product List | Glossary Off
Versions: 1 2 3 4 5 6 7 8 9 10 11 12 13 14 15 16 17 18 19 20 21 22 23 24 25 26 27 28 29 30 31 32 33 34 35 36 37 38 39 40 41 42 43

000
ASUS42 KMHX 171014
RWRMHX
WEATHER ROUNDUP FOR EASTERN NORTH CAROLINA
NATIONAL WEATHER SERVICE NEWPORT/MOREHEAD CITY NC
600 AM EDT THU AUG 17 2017

NOTE: "FAIR" INDICATES FEW OR NO CLOUDS BELOW 12,000 FEET
WITH NO SIGNIFICANT WEATHER AND/OR OBSTRUCTIONS TO VISIBILITY

NCZ015>017-031-032-045>047-102-103-171100-
NORTH COAST

CITY           SKY/WX    TMP DP  RH WIND       PRES   REMARKS
EDENTON        CLEAR     73  71  93 CALM      30.04R
ELIZABETH CITY FOG       69  69 100 CALM      30.03R VSB 1/2
KITTY HAWK     SUNNY     72  72 100 CALM      30.02R FOG
MANTEO         CLEAR     70  70  99 CALM      30.03R FOG

$$

NCZ045>047-081-094-103-104-171100-
CENTRAL COAST

CITY           SKY/WX    TMP DP  RH WIND       PRES   REMARKS
FRISCO         PTCLDY    73  73 100 CALM      30.02S

$$

NCZ095-097-098-100-101-171100-
SOUTHERN COAST

CITY           SKY/WX    TMP DP  RH WIND       PRES   REMARKS
BEAUFORT       CLEAR     75  75 100 CALM      30.03R
CEDAR ISLAND   NOT AVBL
JACKSONVILLE   PTCLDY    76  76 100 CALM      30.01R
PINEY ISLAND   NOT AVBL
WILMINGTON     MOCLDY    75  74  96 CALM      30.01S


$$

NCZ011>013-027>030-043-044-078>080-089-090>093-098-171100-
COASTAL PLAIN

CITY           SKY/WX    TMP DP  RH WIND       PRES   REMARKS
AHOSKIE          N/A     70  70  99 CALM      30.03R FOG
CLINTON        CLEAR     76  76 100 CALM      30.01S
ELIZABETHTOWN  NOT AVBL
GOLDSBORO      MOCLDY    75  73  92 SW1       30.02R FOG
GREENVILLE     CLOUDY    77  77 100 CALM      30.03S FOG
HAVELOCK       FOG       75  74  96 CALM      30.03R VSB 3/4
KENANSVILLE    FOG       73  73 100 CALM      30.02R VSB 1/4
KINSTON        FOG       76  76  99 CALM      30.02S VSB 3/4
NEW BERN       CLEAR     75  75 100 CALM      30.03S
RICHLANDS      CLOUDY    75  75 100 CALM      30.02S FOG
ROCKY MOUNT    FOG       74  74 100 CALM      30.02R VSB 1/4
WASHINGTON     CLEAR     74  73  98 CALM      30.03R
WHITEVILLE     MOCLDY    75  74  96 CALM      30.00S

$$

AMZ130-135-150-152-154-156-158-170-250-252-270-ANZ085-086-088-633-658-670-171100-
MARINE OBSERVATIONS

STATION/POSITION TIME  TEMP    WIND        PRES    WAVE   SWELL
                       AIR SEA DIR/SP/G            HT/PER HT/PER
                 (UTC) (F)     (DEG/KT/KT) (MB)    (FT/S) (FT/S)
CHESAPEAKE LIGHT NOT AVBL
64 E VA BEACH    0950   75 77  270/  2/  2 1017.4    3/ 8   2/ 8
DUCK             0942   76 79  120/  4/  5 1016.4
2 E DUCK         1000      78                N/A     2/ 8
OREGON INLET     0942   75 82   CALM  /  1 1016.5
13E OREGON INLT  0948      79                N/A     2/ 7   2/ 7
HATTERAS CG      0942   79 83   50/  3/  4 1016.4
DIAMOND BUOY     0950   79 82  360/  8/ 10 1016.3    2/ 8   2/ 8
CAPE LOOKOUT     1000   80      30/  3/  4 1016.4
BEAUFORT LAB     0942   78 81   70/  2/  3 1016.0
30 SE NEW RVR IN 0908   79 84   90/  2/  4 1016.3
30 SE NEW RVR IN 0943      83                N/A     2/ 6
27 SE WRIGHTSVLE 0908   82 83  120/  4/  6 1016.1
5 SE WRIGHTSVLE  0908   82 83  120/  4/  6 1015.9
225 S CAPE HAT   0950   83 84  280/  6/  8 1016.8    3/ 6   3/ 6
41 SE CHARLESTON 1000   84 84  250/ 10/ 10 1015.6

$$




USA.gov is the U.S. government's official web portal to all federal, state and local government web resources and services.